Weather History for Orr, MN

Change the Weather History Date:

Friday, April 5, 2013

  Actual Average Record
Temperature  
Mean Temperature 22 °F -  
Max Temperature 37 °F 42 °F 62 °F (2005)
Min Temperature 6 °F 22 °F 3 °F (2007)
Degree Days  
Heating Degree Days 44    
Moisture  
Dew Point 10 °F    
Average Humidity 56    
Maximum Humidity 92    
Minimum Humidity 28    
Precipitation  
Precipitation 0.00 in - - ()
Sea Level Pressure  
Sea Level Pressure 30.12 in    
Wind  
Wind Speed 2 mph (SE)    
Max Wind Speed 12 mph    
Max Gust Speed -    
Visibility 10 miles    
Events Snow    
Averages and records for this station are not official NWS values.
T = Trace of Precipitation, MM = Missing Value Source: NWS Daily Summary

Daily Weather History Graph

Daily Weather History Graph

Search for Another Location

Airport:

Trip Planner

Search our weather history database for the weather conditions in past years. The results will help you decide how hot, cold, wet, or windy it might be!

Date:

Astronomy

Apr. 05, 2013 Rise Set
Actual Time 6:41 AM CDT 7:47 PM CDT
Civil Twilight 6:09 AM CDT 8:19 PM CDT
Nautical Twilight 5:31 AM CDT 8:57 PM CDT
Astronomical Twilight 4:50 AM CDT 9:38 PM CDT
Moon 4:09 AM CDT (4/5) 2:53 PM CDT (4/5)
Length of Visible Light 14h 10m
Length of Day
13h 06m
Waning Crescent, 23% of the Moon is Illuminated
Apr 5
Waning Crescent
Apr 10
New
Apr 18
First Quarter
Apr 25
Full
May 2
Last Quarter

Hourly Weather History & Observations

Time (CDT) Temp. Windchill Dew Point Humidity Pressure Visibility Wind Dir Wind Speed Gust Speed Precip Events Conditions
12:13 AM 19.4 °F - 10.4 °F 68% 30.16 in 10.0 mi Calm Calm - N/A   Clear
12:33 AM 19.4 °F - 10.4 °F 68% 30.16 in 10.0 mi Calm Calm - N/A   Clear
12:53 AM 19.4 °F - 12.2 °F 74% 30.16 in 10.0 mi Calm Calm - N/A   Clear
1:13 AM 17.6 °F - 12.2 °F 79% 30.17 in 10.0 mi Calm Calm - N/A   Clear
1:33 AM 17.6 °F - 10.4 °F 73% 30.17 in 10.0 mi Calm Calm - N/A   Clear
1:53 AM 15.8 °F - 10.4 °F 79% 30.18 in 10.0 mi Calm Calm - N/A   Clear
2:13 AM 17.6 °F - 10.4 °F 73% 30.18 in 10.0 mi Calm Calm - N/A   Clear
2:33 AM 17.6 °F - 10.4 °F 73% 30.18 in 10.0 mi Calm Calm - N/A   Clear
2:53 AM 17.6 °F - 10.4 °F 73% 30.18 in 10.0 mi Calm Calm - N/A   Clear
3:13 AM 17.6 °F - 10.4 °F 73% 30.18 in 10.0 mi Calm Calm - N/A   Clear
3:33 AM 17.6 °F - 8.6 °F 68% 30.18 in 10.0 mi Calm Calm - N/A   Clear
3:53 AM 15.8 °F - 8.6 °F 73% 30.19 in 10.0 mi Calm Calm - N/A   Clear
4:13 AM 14.0 °F - 8.6 °F 79% 30.19 in 10.0 mi Calm Calm - N/A   Clear
4:33 AM 15.8 °F - 8.6 °F 73% 30.19 in 10.0 mi Calm Calm - N/A   Clear
4:53 AM 12.2 °F - 8.6 °F 85% 30.20 in 10.0 mi Calm Calm - N/A   Clear
5:13 AM 12.2 °F - 8.6 °F 85% 30.20 in 10.0 mi Calm Calm - N/A   Clear
5:33 AM 10.4 °F - 6.8 °F 85% 30.20 in 10.0 mi Calm Calm - N/A   Clear
5:53 AM 10.4 °F - 6.8 °F 85% 30.21 in 10.0 mi Calm Calm - N/A   Clear
6:13 AM 10.4 °F - 6.8 °F 85% 30.21 in 10.0 mi Calm Calm - N/A   Clear
6:33 AM 10.4 °F - 6.8 °F 85% 30.21 in 10.0 mi Calm Calm - N/A   Clear
6:53 AM 10.4 °F - 8.6 °F 92% 30.21 in 10.0 mi Calm Calm - N/A   Clear
7:13 AM 6.8 °F - 3.2 °F 85% 30.21 in 10.0 mi Calm Calm - N/A   Clear
7:33 AM 10.4 °F - 8.6 °F 92% 30.21 in 10.0 mi Calm Calm - N/A   Clear
7:53 AM 10.4 °F - 8.6 °F 92% 30.21 in 10.0 mi Calm Calm - N/A   Clear
8:13 AM 14.0 °F - 10.4 °F 86% 30.21 in 10.0 mi Calm Calm - N/A   Clear
8:33 AM 19.4 °F - 12.2 °F 74% 30.21 in 10.0 mi Calm Calm - N/A   Clear
8:53 AM 23.0 °F - 10.4 °F 59% 30.20 in 10.0 mi Calm Calm - N/A   Clear
9:13 AM 26.6 °F 22.6 °F 8.6 °F 47% 30.20 in 10.0 mi SE 3.5 mph - N/A   Clear
9:33 AM 26.6 °F 21.2 °F 8.6 °F 47% 30.20 in 10.0 mi East 4.6 mph - N/A   Clear
9:53 AM 28.4 °F 24.6 °F 8.6 °F 43% 30.20 in 10.0 mi SSE 3.5 mph - N/A   Clear
10:13 AM 28.4 °F 23.3 °F 8.6 °F 43% 30.19 in 10.0 mi SE 4.6 mph - N/A   Clear
10:33 AM 28.4 °F 23.3 °F 6.8 °F 40% 30.19 in 10.0 mi East 4.6 mph - N/A   Clear
10:53 AM 30.2 °F - 8.6 °F 40% 30.18 in 10.0 mi Calm Calm - N/A   Clear
11:13 AM 30.2 °F - 6.8 °F 37% 30.18 in 10.0 mi Calm Calm - N/A   Clear
11:33 AM 30.2 °F 25.4 °F 8.6 °F 40% 30.17 in 10.0 mi East 4.6 mph - N/A   Clear
11:53 AM 32.0 °F - 8.6 °F 38% 30.17 in 10.0 mi Calm Calm - N/A   Clear
12:13 PM 32.0 °F 25.6 °F 8.6 °F 38% 30.16 in 10.0 mi South 6.9 mph - N/A   Clear
12:33 PM 33.8 °F 30.8 °F 8.6 °F 35% 30.15 in 10.0 mi SE 3.5 mph - N/A   Clear
12:53 PM 35.6 °F 32.8 °F 6.8 °F 30% 30.14 in 10.0 mi SSE 3.5 mph - N/A   Clear
1:13 PM 35.6 °F 31.7 °F 6.8 °F 30% 30.13 in 10.0 mi SSE 4.6 mph - N/A   Clear
1:33 PM 35.6 °F 29.9 °F 8.6 °F 33% 30.12 in 10.0 mi SSE 6.9 mph - N/A   Clear
1:53 PM 35.6 °F 30.7 °F 8.6 °F 33% 30.12 in 10.0 mi SE 5.8 mph - N/A   Clear
2:13 PM 35.6 °F 29.9 °F 6.8 °F 30% 30.11 in 10.0 mi SE 6.9 mph - N/A   Clear
2:33 PM 35.6 °F 32.8 °F 6.8 °F 30% 30.10 in 10.0 mi SE 3.5 mph - N/A   Scattered Clouds
2:53 PM 37.4 °F 31.4 °F 6.8 °F 28% 30.09 in 10.0 mi SE 8.1 mph - N/A   Clear
3:13 PM 37.4 °F 31.4 °F 8.6 °F 30% 30.08 in 10.0 mi SE 8.1 mph - N/A   Clear
3:33 PM 37.4 °F 32.1 °F 8.6 °F 30% 30.08 in 10.0 mi South 6.9 mph - N/A   Clear
3:53 PM 37.4 °F 31.4 °F 8.6 °F 30% 30.07 in 10.0 mi South 8.1 mph - N/A   Clear
4:13 PM 35.6 °F 29.9 °F 8.6 °F 33% 30.06 in 10.0 mi SSE 6.9 mph - N/A   Clear
4:33 PM 37.4 °F 32.8 °F 8.6 °F 30% 30.05 in 10.0 mi SSE 5.8 mph - N/A   Clear
4:53 PM 37.4 °F 32.1 °F 8.6 °F 30% 30.05 in 10.0 mi South 6.9 mph - N/A   Clear
5:13 PM 37.4 °F 31.4 °F 8.6 °F 30% 30.04 in 10.0 mi South 8.1 mph - N/A   Clear
5:33 PM 35.6 °F 29.9 °F 8.6 °F 33% 30.03 in 10.0 mi SE 6.9 mph - N/A   Clear
5:53 PM 37.4 °F 32.8 °F 8.6 °F 30% 30.02 in 10.0 mi SE 5.8 mph - N/A   Scattered Clouds
6:13 PM 35.6 °F 29.9 °F 10.4 °F 35% 30.02 in 10.0 mi SSE 6.9 mph - N/A   Mostly Cloudy
6:33 PM 35.6 °F 29.9 °F 12.2 °F 38% 30.02 in 10.0 mi SSE 6.9 mph - N/A   Scattered Clouds
6:53 PM 35.6 °F 29.9 °F 12.2 °F 38% 30.01 in 10.0 mi SE 6.9 mph - N/A   Mostly Cloudy
7:13 PM 35.6 °F 29.9 °F 12.2 °F 38% 30.01 in 10.0 mi SE 6.9 mph - N/A   Mostly Cloudy
7:33 PM 33.8 °F 27.7 °F 10.4 °F 38% 30.01 in 10.0 mi SE 6.9 mph - N/A   Mostly Cloudy
7:53 PM 33.8 °F 28.6 °F 10.4 °F 38% 30.00 in 10.0 mi SE 5.8 mph - N/A   Mostly Cloudy
8:13 PM 33.8 °F 28.6 °F 10.4 °F 38% 30.00 in 10.0 mi SE 5.8 mph - N/A   Overcast
8:33 PM 33.8 °F 29.6 °F 8.6 °F 35% 30.00 in 10.0 mi SE 4.6 mph - N/A   Overcast
8:53 PM 33.8 °F 29.6 °F 10.4 °F 38% 30.00 in 10.0 mi SE 4.6 mph - N/A   Overcast
9:13 PM 33.8 °F 27.0 °F 10.4 °F 38% 30.00 in 10.0 mi SSE 8.1 mph - N/A   Scattered Clouds
9:33 PM 32.0 °F 23.0 °F 19.4 °F 60% 30.01 in 10.0 mi South 11.5 mph - N/A   Mostly Cloudy
9:53 PM 30.2 °F 22.6 °F 21.2 °F 69% 30.00 in 10.0 mi South 8.1 mph - N/A   Overcast
10:13 PM 30.2 °F 24.3 °F 21.2 °F 69% 29.99 in 10.0 mi SSE 5.8 mph - N/A   Overcast
10:33 PM 30.2 °F 25.4 °F 21.2 °F 69% 29.99 in 10.0 mi SSE 4.6 mph - N/A Snow Light Snow
10:53 PM 30.2 °F 22.6 °F 23.0 °F 75% 29.99 in 7.0 mi SSE 8.1 mph - N/A Snow Light Snow
11:13 PM 30.2 °F 26.7 °F 23.0 °F 75% 29.98 in 4.0 mi SE 3.5 mph - N/A Snow Light Snow
11:33 PM 28.4 °F 22.2 °F 24.8 °F 86% 29.97 in 4.0 mi ESE 5.8 mph - N/A   Mostly Cloudy
11:53 PM 28.4 °F 21.2 °F 24.8 °F 86% 29.96 in 7.0 mi ESE 6.9 mph - N/A   Overcast